TimeEDT,TemperatureF,Dew PointF,Humidity,Sea Level PressureIn,VisibilityMPH,Wind Direction,Wind SpeedMPH,Gust SpeedMPH,PrecipitationIn,Events,Conditions,WindDirDegrees,DateUTC
12:15 AM,40.5,31.6,71,29.80,7.0,SW,18.4,29.9,N/A,,Overcast,220,2014-03-10 04:15:00
12:35 AM,40.8,31.5,69,29.79,7.0,SW,16.1,29.9,N/A,,Overcast,230,2014-03-10 04:35:00
12:55 AM,41.0,31.3,68,29.79,7.0,SW,16.1,28.8,N/A,,Overcast,230,2014-03-10 04:55:00
1:15 AM,41.4,31.1,67,29.78,7.0,SW,18.4,29.9,N/A,,Overcast,220,2014-03-10 05:15:00
1:35 AM,41.2,31.1,67,29.77,7.0,SW,19.6,33.4,N/A,,Mostly Cloudy,220,2014-03-10 05:35:00
1:55 AM,41.0,30.9,67,29.76,7.0,SW,18.4,29.9,N/A,,Mostly Cloudy,230,2014-03-10 05:55:00
2:15 AM,40.6,30.9,68,29.75,7.0,SW,21.9,29.9,N/A,,Mostly Cloudy,220,2014-03-10 06:15:00
2:35 AM,41.0,30.9,67,29.74,7.0,SW,15.0,27.6,N/A,,Overcast,230,2014-03-10 06:35:00
2:55 AM,41.0,31.1,68,29.74,7.0,SW,16.1,28.8,N/A,,Overcast,230,2014-03-10 06:55:00
3:15 AM,40.5,31.3,70,29.72,7.0,SW,16.1,27.6,N/A,,Mostly Cloudy,230,2014-03-10 07:15:00
3:35 AM,40.5,31.8,71,29.72,7.0,SW,16.1,28.8,N/A,,Mostly Cloudy,230,2014-03-10 07:35:00
3:55 AM,40.5,32.0,72,29.71,7.0,WSW,18.4,28.8,N/A,,Overcast,240,2014-03-10 07:55:00
4:15 AM,40.5,31.8,71,29.71,7.0,WSW,17.3,28.8,N/A,,Overcast,240,2014-03-10 08:15:00
4:35 AM,40.3,31.8,72,29.71,7.0,WSW,17.3,26.5,N/A,,Mostly Cloudy,240,2014-03-10 08:35:00
4:55 AM,40.1,31.6,72,29.71,7.0,WSW,12.7,25.3,N/A,,Scattered Clouds,240,2014-03-10 08:55:00
5:15 AM,39.4,31.3,73,29.71,7.0,WSW,12.7,20.7,N/A,,Overcast,240,2014-03-10 09:15:00
5:35 AM,39.2,31.5,74,29.71,7.0,WSW,11.5,18.4,N/A,,Scattered Clouds,240,2014-03-10 09:35:00
5:55 AM,39.0,31.5,74,29.71,7.0,WSW,13.8,18.4,N/A,,Scattered Clouds,240,2014-03-10 09:55:00
6:15 AM,38.8,31.5,75,29.71,7.0,WSW,11.5,16.1,N/A,,Mostly Cloudy,240,2014-03-10 10:15:00
6:35 AM,39.4,31.6,74,29.71,7.0,SW,11.5,-,N/A,,Overcast,230,2014-03-10 10:35:00
6:55 AM,39.2,31.6,74,29.70,7.0,SW,11.5,17.3,N/A,,Scattered Clouds,230,2014-03-10 10:55:00
7:15 AM,39.6,32.0,74,29.71,7.0,WSW,9.2,18.4,N/A,,Clear,240,2014-03-10 11:15:00
7:35 AM,39.7,31.5,72,29.70,7.0,WSW,10.4,18.4,N/A,,Scattered Clouds,240,2014-03-10 11:35:00
7:55 AM,40.5,31.8,71,29.69,10.0,WSW,10.4,19.6,N/A,,Scattered Clouds,240,2014-03-10 11:55:00
8:15 AM,41.2,31.8,69,29.69,10.0,SW,12.7,20.7,N/A,,Mostly Cloudy,230,2014-03-10 12:15:00
8:35 AM,41.0,31.6,69,29.69,10.0,SW,9.2,20.7,N/A,,Mostly Cloudy,230,2014-03-10 12:35:00
8:55 AM,41.0,31.6,69,29.70,10.0,WSW,9.2,18.4,N/A,,Mostly Cloudy,240,2014-03-10 12:55:00
9:15 AM,41.9,31.8,67,29.70,10.0,WSW,10.4,16.1,N/A,,Mostly Cloudy,240,2014-03-10 13:15:00
9:35 AM,42.1,31.8,67,29.70,10.0,WSW,8.1,16.1,N/A,,Scattered Clouds,240,2014-03-10 13:35:00
9:55 AM,42.6,32.0,66,29.70,10.0,WSW,10.4,-,N/A,,Clear,240,2014-03-10 13:55:00
10:15 AM,43.3,32.0,64,29.70,10.0,SW,12.7,20.7,N/A,,Clear,230,2014-03-10 14:15:00
10:35 AM,44.4,32.0,62,29.69,10.0,WSW,12.7,19.6,N/A,,Clear,240,2014-03-10 14:35:00
10:55 AM,45.1,32.0,60,29.68,10.0,SW,9.2,20.7,N/A,,Clear,220,2014-03-10 14:55:00
11:15 AM,45.9,32.0,58,29.68,10.0,WSW,12.7,19.6,N/A,,Clear,240,2014-03-10 15:15:00
11:35 AM,45.9,32.0,58,29.68,10.0,SW,11.5,20.7,N/A,,Clear,230,2014-03-10 15:35:00
11:55 AM,46.0,32.0,58,29.68,10.0,SW,13.8,21.9,N/A,,Clear,220,2014-03-10 15:55:00
12:15 PM,46.4,32.0,57,29.67,10.0,SW,15.0,21.9,N/A,,Clear,220,2014-03-10 16:15:00
12:35 PM,46.8,32.0,57,29.67,10.0,SW,17.3,24.2,N/A,,Clear,220,2014-03-10 16:35:00
12:55 PM,47.5,32.2,55,29.67,10.0,WSW,17.3,25.3,N/A,,Clear,240,2014-03-10 16:55:00
1:15 PM,47.8,32.2,55,29.66,10.0,WSW,12.7,25.3,N/A,,Clear,240,2014-03-10 17:15:00
1:35 PM,48.4,32.4,54,29.65,10.0,SW,13.8,21.9,N/A,,Clear,230,2014-03-10 17:35:00
1:55 PM,48.9,32.4,53,29.64,10.0,SW,12.7,23.0,N/A,,Clear,230,2014-03-10 17:55:00
2:15 PM,49.1,32.5,53,29.64,10.0,WSW,17.3,26.5,N/A,,Clear,240,2014-03-10 18:15:00
2:35 PM,49.3,32.5,53,29.63,10.0,WSW,21.9,29.9,N/A,,Clear,240,2014-03-10 18:35:00
2:55 PM,49.8,32.5,51,29.63,10.0,WSW,18.4,26.5,N/A,,Clear,240,2014-03-10 18:55:00
3:15 PM,50.0,32.5,51,29.62,10.0,WSW,16.1,27.6,N/A,,Clear,240,2014-03-10 19:15:00
3:35 PM,50.0,32.9,52,29.62,10.0,WSW,17.3,27.6,N/A,,Clear,240,2014-03-10 19:35:00
3:55 PM,50.2,32.9,52,29.61,10.0,WSW,16.1,27.6,N/A,,Clear,240,2014-03-10 19:55:00
4:15 PM,50.4,33.4,52,29.61,10.0,WSW,15.0,23.0,N/A,,Clear,240,2014-03-10 20:15:00
4:35 PM,50.9,33.8,52,29.61,10.0,WSW,18.4,28.8,N/A,,Clear,240,2014-03-10 20:35:00
4:55 PM,50.9,34.0,52,29.60,10.0,SW,18.4,28.8,N/A,,Clear,230,2014-03-10 20:55:00
5:15 PM,50.9,34.0,52,29.60,10.0,SW,15.0,26.5,N/A,,Clear,230,2014-03-10 21:15:00
5:35 PM,50.9,34.5,54,29.61,10.0,WSW,18.4,25.3,N/A,,Clear,240,2014-03-10 21:35:00
5:55 PM,50.2,34.5,55,29.60,10.0,SW,19.6,25.3,N/A,,Clear,230,2014-03-10 21:55:00
6:15 PM,50.0,34.9,56,29.60,10.0,SW,17.3,25.3,N/A,,Clear,230,2014-03-10 22:15:00
6:35 PM,49.8,35.1,57,29.61,10.0,SW,16.1,25.3,N/A,,Clear,230,2014-03-10 22:35:00
6:55 PM,48.7,35.1,59,29.62,10.0,WSW,17.3,21.9,N/A,,Clear,240,2014-03-10 22:55:00
7:15 PM,47.8,35.1,61,29.63,10.0,WSW,17.3,24.2,N/A,,Clear,240,2014-03-10 23:15:00
7:35 PM,46.6,34.7,63,29.64,10.0,WSW,12.7,25.3,N/A,,Clear,240,2014-03-10 23:35:00
7:55 PM,46.2,34.2,63,29.64,10.0,WSW,12.7,18.4,N/A,,Clear,240,2014-03-10 23:55:00
8:15 PM,45.9,34.3,64,29.65,10.0,WSW,11.5,20.7,N/A,,Clear,250,2014-03-11 00:15:00
8:35 PM,44.6,34.2,67,29.66,10.0,WSW,11.5,19.6,N/A,,Clear,240,2014-03-11 00:35:00
8:55 PM,43.7,34.0,69,29.66,10.0,WSW,9.2,19.6,N/A,,Clear,240,2014-03-11 00:55:00
9:15 PM,43.7,34.0,69,29.66,10.0,WSW,11.5,19.6,N/A,,Clear,240,2014-03-11 01:15:00
9:35 PM,42.8,34.2,72,29.66,10.0,WSW,8.1,-,N/A,,Clear,240,2014-03-11 01:35:00
9:55 PM,42.4,34.5,74,29.66,10.0,WSW,8.1,-,N/A,,Clear,250,2014-03-11 01:55:00
10:15 PM,43.0,34.9,73,29.66,10.0,SW,8.1,-,N/A,,Clear,230,2014-03-11 02:15:00
10:35 PM,42.8,34.9,74,29.67,10.0,WSW,10.4,-,N/A,,Clear,240,2014-03-11 02:35:00
10:55 PM,42.8,35.4,75,29.66,10.0,WSW,9.2,17.3,N/A,,Clear,250,2014-03-11 02:55:00
11:15 PM,42.8,35.6,76,29.66,10.0,WSW,10.4,16.1,N/A,,Clear,250,2014-03-11 03:15:00
11:35 PM,41.9,35.6,78,29.66,10.0,WSW,6.9,-,N/A,,Clear,250,2014-03-11 03:35:00
11:55 PM,41.5,35.6,79,29.66,10.0,WSW,8.1,-,N/A,,Clear,250,2014-03-11 03:55:00